#timestamp,LO_Frequency,Hit,StdDev 
1522926015.6,286047000.8,N
1522926035.5,286047001.0,N
1522926055.3,286047002.0,N
1522926075.2,286047002.4,N
1522926095.9,286047002.4,N
1522926115.7,286047002.7,N
1522926135.6,286046999.9,N
1522926155.4,286047001.1,N
1522926175.3,286047001.2,N
1522926195.1,286046998.9,N
1522926196.0,286046998.9,N
1522926215.8,286046998.2,N
1522926235.7,286047001.0,N
1522926255.5,286047000.2,N
1522926275.3,286047000.3,N
1522926295.2,286047000.0,N
1522926315.0,286047000.1,N
1522926315.9,286047000.1,N
1522926335.8,286047000.9,N
1522926355.6,286047002.8,N
1522926375.4,286047002.2,N
1522926395.3,286047003.4,N
1522926415.1,286047002.2,N
1522926435.9,286047000.5,N
1522926455.7,286047000.0,N
1522926475.5,286046998.6,N
1522926495.4,286047000.7,N
1522926515.2,286047001.1,N
1522926535.0,286047002.4,N
1522926535.9,286047002.4,N
1522926555.8,286046999.8,N
1522926575.6,286047000.3,N
1522926595.5,286046999.8,N
1522926615.3,286047001.5,N
1522926635.1,286047004.1,Y
1522926655.9,286047002.2,P
1522926675.7,286047003.2,P
1522926695.6,286047001.6,N
1522926715.4,286047002.0,N
1522926735.2,286047003.9,Y
1522926755.1,286047002.7,P
1522926756.0,286047002.7,P
1522926775.8,286047002.6,P
1522926795.7,286047000.9,N
1522926815.5,286047000.9,N
1522926835.3,286046999.5,N
1522926855.2,286046999.0,N
1522926875.0,286046998.6,N
1522926875.9,286046998.6,N
1522926895.8,286046999.4,N
1522926915.6,286046999.2,N
1522926935.4,286046997.1,N
1522926955.3,286046997.3,N
1522926975.1,286046997.1,N
1522926995.9,286046999.4,N
1522927015.7,286046996.5,N
1522927035.5,286046999.0,N
1522927055.4,286046996.6,N
1522927075.2,286046997.3,N
1522927095.1,286046996.9,N
1522927096.0,286046996.9,N
1522927115.8,286046998.3,N
1522927135.6,286047000.7,N
1522927155.5,286046998.3,N
1522927175.3,286046998.6,N
1522927195.2,286046998.2,N
1522927215.9,286047000.6,N
1522927235.7,286046998.6,N
1522927255.6,286046998.1,N
1522927275.4,286046999.4,N
1522927295.3,286046997.1,N
1522927315.1,286046996.5,N
1522927316.0,286046996.5,N
1522927335.8,286046997.2,N
1522927355.7,286046996.7,N
1522927375.5,286046997.0,N
1522927395.4,286046997.1,N
1522927415.2,286046996.9,N
1522927435.0,286046997.3,N
1522927435.9,286046997.3,N
1522927455.8,286046997.3,N
1522927475.6,286046997.7,N
1522927495.5,286046996.9,N
1522927515.3,286046998.7,N
1522927535.1,286046998.3,N
1522927555.9,286047001.2,N
1522927575.7,286047000.4,N
1522927595.6,286047000.8,N
1522927615.4,286046999.4,N
1522927635.2,286046996.6,N
1522927655.1,286046996.8,N
1522927675.1,286046999.4,N
1522927676.0,286046999.4,N
1522927695.8,286046996.8,N
1522927715.6,286046997.4,N
1522927735.5,286046996.9,N
1522927755.3,286046997.1,N
1522927775.1,286046998.3,N
1522927795.9,286047000.5,N
1522927815.7,286046998.7,N
1522927835.6,286046998.2,N
1522927855.4,286047000.7,N
1522927875.2,286046999.8,N
1522927895.1,286046998.5,N
1522927896.0,286046998.5,N
1522927915.8,286046999.1,N
1522927935.7,286046999.3,N
1522927955.5,286046996.6,N
1522927975.3,286046998.7,N
1522927995.2,286046999.2,N
1522928015.0,286046998.8,N
1522928015.9,286046998.8,N
1522928035.8,286046998.8,N
1522928055.6,286046998.4,N
1522928075.4,286047000.7,N
1522928095.3,286047001.2,N
1522928115.1,286046998.1,N
1522928135.8,286046998.7,N
1522928155.7,286047001.2,N
1522928175.5,286047000.9,N
1522928195.4,286047000.3,N
1522928215.2,286047002.3,N
1522928235.0,286047000.6,N
1522928235.9,286047000.6,N
1522928255.8,286047001.1,N
1522928275.6,286047000.0,N
1522928295.5,286047000.9,N
1522928315.3,286047002.4,N
1522928335.1,286047000.0,N
1522928355.9,286047000.2,N
1522928375.7,286047000.5,N
1522928395.5,286046998.1,N
1522928415.4,286046998.1,N
1522928435.2,286046998.5,N
1522928455.1,286047001.2,N
1522928456.0,286047001.2,N
1522928475.8,286046998.3,N
1522928495.6,286046998.1,N
1522928515.5,286046998.5,N
1522928535.3,286047000.9,N
1522928555.2,286047001.2,N
1522928575.9,286046998.7,N
1522928595.7,286047001.1,N
1522928615.6,286046998.5,N
1522928635.4,286046998.8,N
1522928655.3,286047001.1,N
1522928675.1,286046998.2,N
1522928676.0,286046998.2,N
1522928695.8,286046998.1,N
1522928715.7,286047000.7,N
1522928735.5,286047000.0,N
1522928755.3,286047000.9,N
1522928775.2,286047000.2,N
1522928795.0,286047000.2,N
1522928795.9,286047000.2,N
1522928815.8,286047000.0,N
1522928865.6,286046998.2,E
1522928875.5,286047000.7,N
1522928895.4,286047000.3,P
1522928915.2,286047001.2,P
1522928935.1,286047000.9,N
1522928936.0,286047000.9,N
1522928955.8,286046998.2,Y
1522928975.6,286046998.8,P
1522928995.5,286047000.4,N
1522929015.3,286047000.6,N
1522929035.2,286047000.6,N
1522929055.9,286047000.9,N
1522929075.7,286047000.0,N
1522929095.6,286047000.0,N
1522929115.4,286047002.1,Y
1522929135.2,286047002.1,P
1522929155.1,286046999.8,N
1522929156.0,286046999.8,N
1522929175.8,286047000.5,N
1522929195.7,286046999.8,N
1522929215.5,286047001.1,N
1522929235.3,286047001.2,N
1522929255.2,286047000.5,N
1522929275.0,286047000.0,N
1522929275.9,286047000.0,N
1522929295.8,286047001.1,N
1522929315.6,286047001.2,N
1522929335.4,286047000.9,N
1522929355.3,286047001.0,N
1522929375.1,286047000.4,N
1522929395.9,286047000.2,N
1522929415.7,286047000.0,N
1522929435.5,286047000.5,N
1522929455.4,286047000.9,N
1522929475.2,286046998.5,N
1522929495.0,286046999.3,N
1522929495.9,286046999.3,N
1522929515.8,286046998.1,N
1522929535.6,286047000.2,N
1522929555.5,286047001.2,N
1522929575.3,286046998.5,N
1522929595.1,286046998.8,N
